Tracking 30923 objects as of 1-Jul-2025
HD Live streaming from Space Station
objects crossing your sky now

TITAN 3C TRANSTAGE DEB

Track TITAN 3C TRANSTAGE DEB now!


NORAD ID: 43448
Int'l Code: 1969-013H
Perigee: 35,014.0 km
Apogee: 37,460.7 km
Inclination: 0.4 °
Period: 1,458.8 minutes
Semi major axis: 42608 km
RCS: Unknown
Launch date: February 9, 1969
Source: United States (US)
Launch site: AIR FORCE EASTERN TEST RANGE (AFETR)

Note: This is SATELLITE DEBRIS
Your satellite tracking list
Your tracking list is empty




NASA's NSSDC Master Catalog

Two Line Element Set (TLE):
1 43448U 69013H   25180.24850273 -.00000242  00000-0  00000+0 0  9997
2 43448   0.4430 159.0742 0287122 338.2277 224.9608  0.98710004 25993
Source of the keplerian elements: AFSPC